This is the latest recevied weather packets stored in our database for station/object DB0NLS-15. If no packets are shown the sender has not sent any weather packets the latest 1 day(s).
| Time | Temp. | Humidity | Pressure | Rain* | Wind** | Luminosity | Snow |
|---|---|---|---|---|---|---|---|
| 1778008229 | 16.67° C | 69% | 995 hPa | 0 mm | 0.89 m/s, 27° | - | - |
| 1778007626 | 16.67° C | 69% | 995 hPa | 0 mm | 0.89 m/s, 35° | - | - |
| 1778007023 | 16.67° C | 71% | 995 hPa | 0 mm | 0.89 m/s, 38° | - | - |
| 1778006420 | 16.67° C | 70% | 995.2 hPa | 0 mm | 0.89 m/s, 45° | - | - |
| 1778005818 | 16.67° C | 70% | 995.2 hPa | 0 mm | 0.45 m/s, 39° | - | - |
| 1778005215 | 17.22° C | 70% | 995 hPa | 0 mm | 1.34 m/s, 17° | - | - |
| 1778004673 | 17.22° C | 71% | 995 hPa | 0 mm | 0.45 m/s, 35° | - | - |
| 1778004070 | 17.22° C | 70% | 995.1 hPa | 0 mm | 0.45 m/s, 38° | - | - |
| 1778003467 | 17.22° C | 71% | 995.3 hPa | 0 mm | 0.89 m/s, 43° | - | - |
| 1778002865 | 17.22° C | 72% | 995.3 hPa | 0 mm | 0.89 m/s, 40° | - | - |
| 1778002262 | 17.22° C | 71% | 995.3 hPa | 0 mm | 0.45 m/s, 36° | - | - |
| 1778001660 | 17.78° C | 71% | 995.3 hPa | 0 mm | 0.45 m/s, 36° | - | - |
| 1778001057 | 17.78° C | 71% | 995.4 hPa | 0 mm | 0.45 m/s, 24° | - | - |
| 1778000454 | 17.78° C | 70% | 995.3 hPa | 0 mm | 0.45 m/s, 24° | - | - |
| 1777999852 | 17.78° C | 69% | 995.4 hPa | 0 mm | 0.89 m/s, 18° | - | - |
| 1777999249 | 17.78° C | 69% | 995.4 hPa | 0 mm | 0.89 m/s, 35° | - | - |
| 1777998646 | 17.78° C | 68% | 995.6 hPa | 0 mm | 0.89 m/s, 17° | - | - |
| 1777998044 | 18.33° C | 68% | 995.6 hPa | 0 mm | 1.34 m/s, 36° | - | - |
| 1777997441 | 18.33° C | 68% | 995.6 hPa | 0 mm | 1.34 m/s, 355° | - | - |
| 1777996838 | 18.33° C | 69% | 995.8 hPa | 0 mm | 0.89 m/s, 13° | - | - |
| 1777996236 | 18.33° C | 68% | 995.8 hPa | 0 mm | 1.34 m/s, 5° | - | - |
| 1777995633 | 17.78° C | 71% | 995.9 hPa | 0 mm | 1.34 m/s, 5° | - | - |
| 1777995030 | 17.78° C | 72% | 995.9 hPa | 0 mm | 1.34 m/s, 332° | - | - |
| 1777994428 | 17.22° C | 73% | 996.1 hPa | 0 mm | 1.34 m/s, 331° | - | - |
| 1777993825 | 17.22° C | 72% | 996 hPa | 0 mm | 1.79 m/s, 356° | - | - |
* Rain latest hour (hover to see other rain measurements)
** Current wind speed in m/s (hover to see current wind gust speed)